PAL2531 RPMZ-RPVI

Flight info

Callsign PAL2531
Flight time 0h 52m
Altitude 27000
Route BURCO1W BURCO W3 PALGI PALG2I
Aircraft A21N/M-SDE3FGHIRWY/LB1

Departure

Time 2026-04-23 13:59
Airport Zamboanga International Airport (RPMZ)

Arrival

Time 2026-04-23 14:51
Airport Iloilo International Airport (RPVI)
Time Latitude Longitude Altitude Speed Heading
2026-04-23 13:41 6.92061 122.06080 41 ft 0 kts 155°
2026-04-23 13:54 6.92060 122.06080 41 ft 0 kts 155°
2026-04-23 13:54 6.92055 122.06091 41 ft 3 kts 96°
2026-04-23 13:54 6.92072 122.06109 41 ft 4 kts 30°
2026-04-23 13:55 6.92103 122.06126 41 ft 5 kts 29°
2026-04-23 13:55 6.92133 122.06153 41 ft 6 kts 65°
2026-04-23 13:55 6.92134 122.06200 41 ft 7 kts 94°
2026-04-23 13:55 6.92147 122.06245 41 ft 4 kts 26°
2026-04-23 13:56 6.92148 122.06246 41 ft 0 kts 25°
2026-04-23 13:56 6.92198 122.06256 41 ft 14 kts 28°
2026-04-23 13:56 6.92216 122.06392 41 ft 26 kts 94°
2026-04-23 13:57 6.92202 122.06580 41 ft 26 kts 93°
2026-04-23 13:57 6.92191 122.06745 41 ft 24 kts 94°
2026-04-23 13:57 6.92180 122.06915 41 ft 23 kts 93°
2026-04-23 13:57 6.92174 122.07067 41 ft 20 kts 80°
2026-04-23 13:58 6.92171 122.07110 41 ft 4 kts 225°
2026-04-23 13:58 6.92169 122.07085 41 ft 0 kts 274°
2026-04-23 13:58 6.92169 122.07076 41 ft 7 kts 274°
2026-04-23 13:59 6.92183 122.06857 41 ft 69 kts 274°
2026-04-23 13:59 6.92234 122.06108 41 ft 140 kts 274°
2026-04-23 13:59 6.92305 122.05026 508 ft 156 kts 274°
2026-04-23 13:59 6.92376 122.03967 1219 ft 154 kts 274°
2026-04-23 14:00 6.92424 122.03266 1628 ft 151 kts 274°
2026-04-23 14:00 6.92525 122.01811 2126 ft 167 kts 274°
2026-04-23 14:00 6.92609 122.00581 2450 ft 186 kts 274°
2026-04-23 14:00 6.92701 121.99227 2837 ft 203 kts 274°
2026-04-23 14:01 6.92801 121.97737 3178 ft 225 kts 274°
2026-04-23 14:01 6.92911 121.96112 3617 ft 244 kts 274°
2026-04-23 14:01 6.93057 121.94343 4192 ft 258 kts 280°
2026-04-23 14:01 6.93789 121.92715 4953 ft 262 kts 311°
2026-04-23 14:02 6.95245 121.91688 5782 ft 263 kts 338°
2026-04-23 14:02 6.96963 121.91034 6608 ft 266 kts 340°
2026-04-23 14:02 6.98703 121.90406 7390 ft 270 kts 340°
2026-04-23 14:02 7.00482 121.89752 8190 ft 274 kts 340°
2026-04-23 14:03 7.02241 121.89092 8963 ft 277 kts 339°
2026-04-23 14:03 7.04052 121.88403 9727 ft 280 kts 339°
2026-04-23 14:03 7.05855 121.87712 10459 ft 283 kts 339°
2026-04-23 14:03 7.07748 121.87144 11161 ft 287 kts 354°
2026-04-23 14:04 7.09716 121.87369 11831 ft 290 kts 20°
2026-04-23 14:04 7.11466 121.88462 12248 ft 303 kts 42°
2026-04-23 14:04 7.13015 121.89953 12566 ft 320 kts 45°
2026-04-23 14:04 7.14635 121.91573 12916 ft 334 kts 45°
2026-04-23 14:05 7.16311 121.93224 13515 ft 339 kts 44°
2026-04-23 14:05 7.18004 121.94866 14183 ft 342 kts 44°
2026-04-23 14:05 7.19730 121.96523 14815 ft 345 kts 44°
2026-04-23 14:05 7.21482 121.98196 15429 ft 349 kts 43°
2026-04-23 14:06 7.23226 121.99857 16021 ft 352 kts 43°
2026-04-23 14:06 7.25021 122.01566 16610 ft 355 kts 43°
2026-04-23 14:06 7.26798 122.03258 17173 ft 358 kts 43°
2026-04-23 14:06 7.28631 122.05005 17734 ft 361 kts 43°
2026-04-23 14:07 7.30454 122.06743 18273 ft 364 kts 43°
2026-04-23 14:07 7.34488 122.09815 19280 ft 371 kts 23°
2026-04-23 14:07 7.36981 122.10552 19786 ft 373 kts
2026-04-23 14:08 7.39539 122.10877 20471 ft 370 kts
2026-04-23 14:08 7.42034 122.11131 21283 ft 363 kts
2026-04-23 14:08 7.44553 122.11385 21825 ft 364 kts
2026-04-23 14:08 7.47082 122.11646 22270 ft 368 kts
2026-04-23 14:09 7.49599 122.11914 22826 ft 367 kts
2026-04-23 14:09 7.52109 122.12186 23496 ft 363 kts
2026-04-23 14:09 7.54635 122.12461 23980 ft 364 kts
2026-04-23 14:09 7.57155 122.12739 24395 ft 367 kts
2026-04-23 14:10 7.59711 122.13021 24811 ft 370 kts
2026-04-23 14:10 7.62286 122.13306 25224 ft 373 kts
2026-04-23 14:10 7.64838 122.13590 25623 ft 375 kts
2026-04-23 14:10 7.67447 122.13879 26018 ft 378 kts
2026-04-23 14:11 7.70075 122.14171 26405 ft 380 kts
2026-04-23 14:11 7.72694 122.14462 26779 ft 383 kts
2026-04-23 14:11 7.75345 122.14756 26984 ft 385 kts
2026-04-23 14:11 7.77977 122.15048 26986 ft 384 kts
2026-04-23 14:12 7.80645 122.15345 26989 ft 384 kts
2026-04-23 14:12 7.83272 122.15637 26990 ft 384 kts
2026-04-23 14:12 7.85928 122.15932 26991 ft 384 kts
2026-04-23 14:12 7.88577 122.16227 26991 ft 384 kts
2026-04-23 14:13 7.91240 122.16523 26991 ft 384 kts
2026-04-23 14:13 7.93867 122.16815 26991 ft 384 kts
2026-04-23 14:13 7.96520 122.17110 26991 ft 384 kts
2026-04-23 14:13 7.99178 122.17406 26991 ft 384 kts
2026-04-23 14:14 8.01839 122.17702 26991 ft 384 kts
2026-04-23 14:14 8.04487 122.17996 26991 ft 384 kts
2026-04-23 14:14 8.07105 122.18288 26986 ft 376 kts
2026-04-23 14:14 8.09687 122.18575 26988 ft 371 kts
2026-04-23 14:15 8.12260 122.18861 26990 ft 370 kts
2026-04-23 14:15 8.14881 122.19154 26990 ft 370 kts
2026-04-23 14:15 8.17425 122.19437 26986 ft 360 kts
2026-04-23 14:15 8.19912 122.19714 26988 ft 357 kts
2026-04-23 14:16 8.22361 122.19987 26990 ft 356 kts
2026-04-23 14:16 8.24810 122.20259 26990 ft 356 kts
2026-04-23 14:16 8.27282 122.20534 26991 ft 356 kts
2026-04-23 14:16 8.29720 122.20806 26991 ft 356 kts
2026-04-23 14:17 8.32199 122.21082 26991 ft 356 kts
2026-04-23 14:17 8.34648 122.21355 26991 ft 356 kts
2026-04-23 14:17 8.37102 122.21629 26991 ft 356 kts
2026-04-23 14:17 8.39476 122.21893 26991 ft 356 kts
2026-04-23 14:18 8.41939 122.22168 26991 ft 356 kts
2026-04-23 14:18 8.44367 122.22438 26991 ft 356 kts
2026-04-23 14:18 8.46847 122.22715 26991 ft 356 kts
2026-04-23 14:18 8.49280 122.22986 26991 ft 356 kts
2026-04-23 14:19 8.51750 122.23261 26993 ft 360 kts
2026-04-23 14:19 8.54281 122.23543 26995 ft 374 kts
2026-04-23 14:19 8.56913 122.23837 26996 ft 387 kts
2026-04-23 14:19 8.59632 122.24141 26996 ft 400 kts
2026-04-23 14:20 8.62418 122.24451 26996 ft 412 kts
2026-04-23 14:20 8.65294 122.24772 26993 ft 418 kts
2026-04-23 14:20 8.68188 122.25095 26992 ft 420 kts
2026-04-23 14:20 8.71092 122.25418 26991 ft 420 kts
2026-04-23 14:21 8.73959 122.25738 26991 ft 420 kts
2026-04-23 14:21 8.76885 122.26065 26991 ft 420 kts
2026-04-23 14:21 8.79772 122.26388 26991 ft 420 kts
2026-04-23 14:21 8.82652 122.26709 26991 ft 420 kts
2026-04-23 14:22 8.85543 122.27032 26991 ft 420 kts
2026-04-23 14:22 8.88437 122.27355 26991 ft 420 kts
2026-04-23 14:22 8.91342 122.27680 26991 ft 420 kts
2026-04-23 14:22 8.94236 122.28004 26991 ft 420 kts
2026-04-23 14:23 8.97128 122.28327 26991 ft 420 kts
2026-04-23 14:23 8.99986 122.28647 26991 ft 420 kts
2026-04-23 14:23 9.02914 122.28974 26991 ft 420 kts
2026-04-23 14:23 9.05827 122.29300 26991 ft 420 kts
2026-04-23 14:24 9.08695 122.29620 26991 ft 420 kts
2026-04-23 14:24 9.11626 122.29948 26991 ft 420 kts
2026-04-23 14:24 9.14591 122.30280 26991 ft 420 kts
2026-04-23 14:24 9.17547 122.30611 26991 ft 420 kts
2026-04-23 14:25 9.20467 122.30938 26991 ft 420 kts
2026-04-23 14:25 9.23408 122.31267 26991 ft 420 kts
2026-04-23 14:25 9.26301 122.31591 26991 ft 420 kts
2026-04-23 14:25 9.29187 122.31915 26991 ft 420 kts
2026-04-23 14:26 9.32075 122.32240 26991 ft 420 kts
2026-04-23 14:26 9.34973 122.32565 26991 ft 420 kts
2026-04-23 14:26 9.37886 122.32893 26991 ft 420 kts
2026-04-23 14:26 9.40777 122.33218 26991 ft 420 kts
2026-04-23 14:27 9.43666 122.33543 26991 ft 420 kts
2026-04-23 14:27 9.46555 122.33867 26788 ft 419 kts
2026-04-23 14:27 9.49465 122.34193 26536 ft 417 kts
2026-04-23 14:27 9.52303 122.34512 26289 ft 415 kts
2026-04-23 14:28 9.55184 122.34834 26036 ft 413 kts
2026-04-23 14:28 9.57993 122.35149 25790 ft 412 kts
2026-04-23 14:28 9.60824 122.35468 25540 ft 410 kts
2026-04-23 14:28 9.63656 122.35785 25289 ft 408 kts
2026-04-23 14:29 9.66483 122.36102 25037 ft 406 kts
2026-04-23 14:29 9.69278 122.36416 24787 ft 405 kts
2026-04-23 14:29 9.72041 122.36726 24539 ft 403 kts
2026-04-23 14:29 9.74817 122.37037 24289 ft 402 kts
2026-04-23 14:30 9.77591 122.37347 24039 ft 400 kts
2026-04-23 14:30 9.80355 122.37656 23788 ft 398 kts
2026-04-23 14:30 9.83069 122.37960 23540 ft 397 kts
2026-04-23 14:30 9.85822 122.38268 23288 ft 395 kts
2026-04-23 14:31 9.88516 122.38570 23040 ft 393 kts
2026-04-23 14:31 9.91238 122.38874 22789 ft 392 kts
2026-04-23 14:31 9.93944 122.39177 22538 ft 390 kts
2026-04-23 14:31 9.96619 122.39476 22289 ft 389 kts
2026-04-23 14:32 9.99282 122.39774 22041 ft 387 kts
2026-04-23 14:32 10.01973 122.40076 21788 ft 385 kts
2026-04-23 14:32 10.04609 122.40372 21540 ft 384 kts
2026-04-23 14:32 10.07265 122.40670 21289 ft 382 kts
2026-04-23 14:33 10.09908 122.40966 21036 ft 381 kts
2026-04-23 14:33 10.12548 122.41262 20775 ft 379 kts
2026-04-23 14:33 10.15163 122.41554 20505 ft 378 kts
2026-04-23 14:33 10.17809 122.41849 20140 ft 376 kts
2026-04-23 14:34 10.20420 122.42141 19717 ft 373 kts
2026-04-23 14:34 10.22996 122.42429 19213 ft 372 kts
2026-04-23 14:34 10.25603 122.42720 18359 ft 380 kts
2026-04-23 14:34 10.28249 122.43016 17695 ft 380 kts
2026-04-23 14:35 10.30847 122.43307 17199 ft 376 kts
2026-04-23 14:35 10.33420 122.43595 16698 ft 373 kts
2026-04-23 14:35 10.35973 122.43881 16166 ft 361 kts
2026-04-23 14:35 10.38424 122.44157 15452 ft 353 kts
2026-04-23 14:36 10.40846 122.44429 14945 ft 351 kts
2026-04-23 14:36 10.43235 122.44698 14618 ft 344 kts
2026-04-23 14:36 10.45588 122.44961 14172 ft 341 kts
2026-04-23 14:36 10.47943 122.45225 13754 ft 337 kts
2026-04-23 14:37 10.50220 122.45482 13567 ft 326 kts
2026-04-23 14:37 10.52425 122.45729 13380 ft 316 kts
2026-04-23 14:37 10.54595 122.45973 13195 ft 306 kts
2026-04-23 14:37 10.56667 122.46206 13017 ft 296 kts
2026-04-23 14:38 10.58690 122.46433 12838 ft 287 kts
2026-04-23 14:38 10.60649 122.46654 12568 ft 282 kts
2026-04-23 14:38 10.62581 122.46871 12281 ft 278 kts
2026-04-23 14:38 10.64475 122.47084 11999 ft 274 kts
2026-04-23 14:39 10.66344 122.47294 11721 ft 270 kts
2026-04-23 14:39 10.68205 122.47503 11447 ft 265 kts
2026-04-23 14:39 10.70021 122.47707 11167 ft 261 kts
2026-04-23 14:39 10.71799 122.47907 10892 ft 257 kts
2026-04-23 14:40 10.73568 122.48106 10617 ft 253 kts
2026-04-23 14:40 10.75296 122.48300 10347 ft 249 kts
2026-04-23 14:40 10.76991 122.48491 10081 ft 245 kts
2026-04-23 14:40 10.78672 122.48680 9818 ft 241 kts
2026-04-23 14:41 10.80320 122.48865 9558 ft 237 kts
2026-04-23 14:41 10.81957 122.49047 9300 ft 233 kts
2026-04-23 14:41 10.83558 122.49145 9090 ft 226 kts
2026-04-23 14:41 10.85063 122.49120 8904 ft 215 kts 356°
2026-04-23 14:42 10.86541 122.49018 8596 ft 209 kts 355°
2026-04-23 14:42 10.87979 122.48909 8293 ft 204 kts 355°
2026-04-23 14:42 10.89369 122.48802 7996 ft 199 kts 355°
2026-04-23 14:42 10.90721 122.48699 7703 ft 194 kts 355°
2026-04-23 14:43 10.92064 122.48598 7408 ft 190 kts 355°
2026-04-23 14:43 10.93353 122.48502 7120 ft 185 kts 355°
2026-04-23 14:43 10.94626 122.48407 6831 ft 181 kts 355°
2026-04-23 14:43 10.95848 122.48316 6595 ft 174 kts 355°
2026-04-23 14:44 10.97024 122.48229 6395 ft 164 kts 355°
2026-04-23 14:44 10.98148 122.48145 6134 ft 159 kts 355°
2026-04-23 14:44 10.99242 122.48064 5817 ft 158 kts 355°
2026-04-23 14:44 11.00338 122.47983 5493 ft 157 kts 355°
2026-04-23 14:45 11.01424 122.47961 5164 ft 157 kts 13°
2026-04-23 14:45 11.02244 122.48619 4766 ft 157 kts 71°
2026-04-23 14:45 11.02326 122.49707 4438 ft 155 kts 93°
2026-04-23 14:45 11.02262 122.50798 4124 ft 154 kts 92°
2026-04-23 14:46 11.02226 122.51880 3811 ft 153 kts 91°
2026-04-23 14:46 11.02216 122.52963 3501 ft 153 kts 91°
2026-04-23 14:46 11.02005 122.54004 3188 ft 151 kts 116°
2026-04-23 14:46 11.01364 122.54845 3089 ft 151 kts 142°
2026-04-23 14:47 11.00413 122.55267 3079 ft 152 kts 176°
2026-04-23 14:47 10.99369 122.55177 3088 ft 152 kts 192°
2026-04-23 14:47 10.98348 122.54887 3040 ft 153 kts 198°
2026-04-23 14:47 10.97387 122.54551 2849 ft 151 kts 200°
2026-04-23 14:48 10.96398 122.54186 2651 ft 151 kts 200°
2026-04-23 14:48 10.95438 122.53828 2491 ft 144 kts 200°
2026-04-23 14:48 10.94507 122.53483 2286 ft 140 kts 200°
2026-04-23 14:48 10.93600 122.53147 2096 ft 139 kts 200°
2026-04-23 14:49 10.92690 122.52811 1908 ft 139 kts 200°
2026-04-23 14:49 10.91771 122.52472 1718 ft 139 kts 200°
2026-04-23 14:49 10.90010 122.51820 1359 ft 138 kts 200°
2026-04-23 14:49 10.89117 122.51490 1178 ft 137 kts 200°
2026-04-23 14:50 10.88216 122.51156 997 ft 137 kts 200°
2026-04-23 14:50 10.87319 122.50827 794 ft 137 kts 200°
2026-04-23 14:50 10.86430 122.50500 609 ft 136 kts 200°
2026-04-23 14:50 10.85539 122.50171 436 ft 136 kts 200°
2026-04-23 14:51 10.84648 122.49840 274 ft 135 kts 200°
2026-04-23 14:51 10.83805 122.49529 179 ft 119 kts 201°
2026-04-23 14:51 10.83144 122.49278 175 ft 76 kts 200°
2026-04-23 14:51 10.82799 122.49149 175 ft 28 kts 198°
2026-04-23 14:52 10.82670 122.49105 175 ft 18 kts 201°
2026-04-23 14:52 10.82551 122.49058 175 ft 18 kts 201°
2026-04-23 14:52 10.82436 122.49015 175 ft 17 kts 200°
2026-04-23 14:52 10.82318 122.48983 175 ft 17 kts 170°
2026-04-23 14:53 10.82296 122.48949 175 ft 10 kts 33°
2026-04-23 14:53 10.82362 122.48988 175 ft 11 kts 20°